Location: *
(37.5724°S, 58.0067°E)
Time: 11:04:45
(UTC+00:00)

ATLAS 5 CENTAUR R/B - Pass Details

Date: 26 September 2020
Orbit: 527 x 1131 km, 63.4° (Epoch: 28 October)

Event Time Altitude Azimuth Distance (km) Brightness Sun altitude
Rises 14:28:12 0° 203° (SSW) 3,462 5.8 -4.8°
Reaches altitude 10° 14:31:45 10° 183° (S) 2,385 4.7 -5.5°
Maximum altitude 14:35:16 17° 143° (SE) 1,799 3.7 -6.2°
Drops below altitude 10° 14:38:28 10° 101° (E) 2,120 3.7 -6.8°
Enters shadow 14:39:07 - 95° (E) 2,272 3.8 -6.9°
